Regional Weather Roundup
Issued by NWS Charleston, SC

Current Version | Previous Version | Graphics & Text | Print | Product List | Glossary On
Versions: 1 2 3 4 5 6 7 8 9 10 11 12 13 14 15 16 17 18 19 20 21 22 23 24 25 26 27 28 29 30 31 32 33 34 35 36 37 38 39 40 41 42 43 44 45 46 47 48 49 50
000
ASUS42 KCHS 221012
RWRCHS

REGIONAL WEATHER ROUNDUP
NATIONAL WEATHER SERVICE CHARLESTON SC
600 AM EDT SUN OCT 22 2017

NOTE: "FAIR" INDICATES FEW OR NO CLOUDS BELOW 12,000 FEET WITH NO
SIGNIFICANT WEATHER AND/OR OBSTRUCTIONS TO VISIBILITY.

NOT ALL STATIONS ARE QUALITY CONTROLLED. USE DATA WITH CAUTION...
ESPECIALLY DEWPOINT OBSERVATIONS.

SCZ027-030-031-034>040-042>050-221100-
...SOUTHEAST SOUTH CAROLINA...

CITY           SKY/WX    TMP DP  RH WIND       PRES   REMARKS
N CHARLESTON   PTCLDY    67  66  97 NE8       30.25R
WATERFRONT PRK NOT AVBL
JOHNS ISLAND   FAIR      68  66  94 N6        30.24S
PINOPOLIS        N/A     68  66  94 E7        30.17S
MONCKS CORNER  FAIR      63  63 100 NE5       30.26S
SUMMERVILLE    FAIR      63  63 100 CALM      30.26S
BEAUFORT MCAS  CLEAR     68  66  93 MISG      30.23R
BEAUFORT ARPT  FAIR      68  64  88 NE7       30.22S
HILTON HEAD IS NOT AVBL
WALTERBORO     MOSUNNY   64  63  94 NE7       30.26S
ALLENDALE        N/A     64  63  94 VRB3        N/A

...SOUTHERN MIDLANDS AND PEE DEE...

CITY           SKY/WX    TMP DP  RH WIND       PRES   REMARKS
GEORGETOWN     FAIR      61  61 100 CALM      30.28R FOG
KINGSTREE      FAIR      61  59  94 CALM      30.28R
ORANGEBURG     CLOUDY    62  61  96 NE5       30.28R
BARNWELL         N/A     64  64 100 CALM      30.27R
AIKEN          FAIR      55  55 100 NE6       30.31R
MANNING        FAIR      61  59  94 MISG      30.28R
COLUMBIA       PTCLDY    55  54  96 CALM      30.28S
SUMTER         PTCLDY    60  58  94 NE6       30.27R
FLORENCE       MOCLDY    58  58 100 NE5       30.30S
MYRTLE BEACH   CLOUDY    66  64  93 NE7       30.29S
N MYRTLE BEACH PTCLDY    63  62  97 NE5       30.28S

$$

GAZ063-065-086>088-099>101-113>116-118-119-134>141-150-221100-
...SOUTHEAST GEORGIA...

CITY           SKY/WX    TMP DP  RH WIND       PRES   REMARKS
SAVANNAH ARPT  PTCLDY    68  67  96 NE8       30.22R
HUNTER AAF     PTCLDY    69  67  92 NE7       30.19R
FORT STEWART   PTCLDY    67  65  94 NE6       30.19R
STATESBORO     CLEAR     65  64  94 CALM      30.24R
SYLVANIA       MOSUNNY   64  64 100 E3        30.25R
CLAXTON        FAIR      67  66  96 N3        30.22R

...CSRA...CENTRAL AND FAR SOUTHEAST GEORGIA...

CITY           SKY/WX    TMP DP  RH WIND       PRES   REMARKS
THOMSON        CLEAR     55  53  92 CALM      30.31S
AUGUSTA-BUSH   PTCLDY    58  56  93 CALM      30.26R
AUGUSTA-DANIEL PTCLDY    66  62  87 NE6       30.27R
SWAINSBORO     CLOUDY    64  64 100 MISG      30.24S
VIDALIA        CLEAR     64  64 100 NE3       30.22R
EASTMAN        FAIR     N/A N/A N/A E3        30.24R
HAZLEHURST     FAIR      67  65  94 NE6       30.19S
ALMA           CLOUDY    69  66  90 CALM      30.19R
WAYCROSS       CLOUDY    69  66  91 E5        30.18S
JESUP          NOT AVBL
BAXLEY         FAIR      64  64 100 NE6       30.19S
BRUNSWICK      CLOUDY    68  64  88 CALM      30.19S
SAINT SIMONS   CLOUDY    76  71  85 E10       30.17R

$$

SCZ027-028-034-036>038-045-046-048>050-GAZ119-141-221100-
...LAKE AND SUPPLEMENTAL COASTAL OBSERVATIONS...

STATION/POSITION TIME  TEMP    WIND        PRES    WAVE   SWELL
                       AIR SEA DIR/SP/G            HT/PER HT/PER/DIR
                 (UTC) (F)     (DEG/KT/KT) (MB)    (FT/S) (FT/S/D)
WINYAH BAY       NOT AVBL
LAKE MURRAY      0920   61      CALM  /  2 1024.7
ACE BASIN NERRS  0845   66        CALM     1024.0
FORT PULASKI     0948   72 74   40/  7/  9 1023.3R
SAPELO ISLAND    NOT AVBL

$$

ANZ835-935-AMZ111-154-330-350-352-354-370-450-454-472-221100-
...C-MAN AND BUOY OBSERVATIONS...

STATION/POSITION TIME  TEMP    WIND        PRES    WAVE   SWELL
                       AIR SEA DIR/SP/G            HT/PER HT/PER/DIR
                 (UTC) (F)     (DEG/KT/KT) (MB)    (FT/S) (FT/S/D)
BUOY 41004       0950   78 79  100/ 12/ 16 1023.3R   4/ 6   3/120/ 6
BUOY 41008       0950   78 77  110/ 16/ 21 1021.6S   5/ 7   2/220/16
FOLLY BEACH CMAN 0900   74      80/  8/ 10 1024.2F
CAPERS NEARSHORE 0908   72 73   80/  8/ 12 1023.7S
FRIPP NEARSHORE  0908   75      80/  8/ 12   N/A


STATION/POSITION TIME  TEMP    WIND        PRES    WAVE   SWELL
                       AIR SEA DIR/SP/G            HT/PER HT/PER/DIR
                 (UTC) (F)     (DEG/KT/KT) (MB)    (FT/S) (FT/S/D)
5E ST. MARYS GA  0930      76                N/A     5/ 7
FRYING PAN BUOY  0950   76 76  120/ 12/ 14 1024.9R   3/ 9   2/100/ 9
BUOY 41025       0950   75 81  100/  4/  6 1026.4R   3/ 8   3/130/ 8
CAPE LOOKOUT NC  0900   67      30/  9/  9 1025.9R
BUOY 41002       0950   76 80   90/ 14/ 17 1024.2R   4/ 8   3/ 90/ 8
BUOY 41010       NOT AVBL
ST AUGUSTINE FL  1000   78 77  110/ 11/ 13 1020.9R


$$




USA.gov is the U.S. government's official web portal to all federal, state and local government web resources and services.